Content
SEND FEEDBACK

Daily
Averages
Monthly
Summary
United Kingdom

LONDON, ENGLAND


Home > Europe > United Kingdom > England
Elevation: 203 feet     Latitude: 51 09N     Longitude: 000 11W

WEATHER
 
SELECT A DAY
Number of Records: 299,479;   Date Range: 7/1/96 - 12/19/14
 
SHARE

PRINT THIS DATA

[ ← Previous Day ]
WEATHER ALMANAC - SEPTEMBER 18, 2013
[ Next Day → ]
[ °C ]   °F
Weather ElementAverageHighLow
Temperature54.9 °F60.8 °F (3:50 pm)46.4 °F (11:50 pm)
Dewpoint47.8 °F55.4 °F (12:50 am)41 °F (11:50 pm)
Humidity78.1 %100 % (12:50 am)59 % (3:50 pm)
Barometer29.65 in29.89 in (11:20 pm)29.42 in (12:50 am)
Wind Speed8.8 mph13.8 mph (2:20 pm)
Weather ElementAverage
Visibility5.6 mi
Wind DirectionWNW (297.4 °)

Weather ElementTotal
Precipitation---
Heating Degree Days11.4 (Base 65)
Growing Degree Days3.6 (Base 50)
Averaged from 47 records on September 18, 2013
WEATHER CONDITIONS BREAKOUT
WIND DIRECTION BREAKOUT
WEATHER BY HOUR - SEPTEMBER 18, 2013
[ °C ]   °F
Local TimeTemperatureDewpointHumidityBarometerVisibilityWind DirectionWind SpeedGust SpeedPrecipitationEventsConditions
12:50 AM55.4 °F55.4 °F100 %29.42 inWest (260°)10.4 mphRainLight Rain
1:20 AM55.4 °F55.4 °F100 %29.42 in2.5 miWest (280°)8.1 mphDrizzle
1:50 AM55.4 °F55.4 °F100 %29.44 inNW (310°)10.4 mphDrizzle
2:20 AM55.4 °F53.6 °F94 %29.44 in6.2 miWNW (290°)9.2 mphMostly Cloudy
2:50 AM55.4 °F53.6 °F94 %29.44 in5.0 miWest (280°)9.2 mphMostly Cloudy
3:20 AM55.4 °F53.6 °F94 %29.47 in3.7 miWNW (290°)5.8 mphLight Drizzle
3:50 AM53.6 °F51.8 °F94 %29.47 in6.2 miWNW (300°)6.9 mphRainLight Rain
4:20 AM53.6 °F51.8 °F94 %29.47 in3.1 miNW (320°)6.9 mphRainLight Rain
4:50 AM53.6 °F51.8 °F94 %29.47 in2.2 miNNW (340°)5.8 mphDrizzle
5:20 AM51.8 °F51.8 °F100 %29.50 inNorth (360°)5.8 mphRainLight Rain
5:50 AM51.8 °F50.0 °F94 %29.50 in6.2 miNNW (330°)6.9 mphMostly Cloudy
6:20 AM51.8 °F50.0 °F94 %29.50 in5.6 miNorth (350°)6.9 mphMostly Cloudy
6:50 AM51.8 °F48.2 °F88 %29.53 in3.1 miNorth (350°)8.1 mphRainLight Rain
7:20 AM51.8 °F48.2 °F88 %29.53 in6.2 miNW (320°)5.8 mphMostly Cloudy
7:50 AM51.8 °F48.2 °F88 %29.56 in6.2 miNNW (330°)9.2 mphMostly Cloudy
8:20 AM51.8 °F50.0 °F94 %29.56 in6.2 miNW (320°)5.8 mphMostly Cloudy
8:50 AM51.8 °F50.0 °F94 %29.56 in6.2 miNW (320°)5.8 mphScattered Clouds
9:20 AM53.6 °F50.0 °F88 %29.59 in6.2 miVariable3.5 mphScattered Clouds
9:50 AM55.4 °F48.2 °F77 %29.59 in6.2 miNNW (330°)8.1 mphScattered Clouds
10:20 AM55.4 °F48.2 °F77 %29.62 in6.2 miNNW (340°)6.9 mphScattered Clouds
10:50 AM55.4 °F48.2 °F77 %29.62 in6.2 miNW (320°)9.2 mphMostly Cloudy
11:20 AM57.2 °F48.2 °F72 %29.65 in6.2 miNW (310°)9.2 mphScattered Clouds
11:50 AM59.0 °F48.2 °F67 %29.65 in6.2 miNW (310°)11.5 mphScattered Clouds
12:20 PM59.0 °F46.4 °F63 %29.65 in6.2 miNW (310°)12.7 mphScattered Clouds
12:50 PM57.2 °F46.4 °F67 %29.65 in6.2 miNW (310°)11.5 mphScattered Clouds
1:20 PM59.0 °F48.2 °F67 %29.68 in6.2 miNW (310°)10.4 mphPartly Cloudy
1:50 PM59.0 °F48.2 °F67 %29.68 in6.2 miNW (310°)11.5 mphPartly Cloudy
2:20 PM59.0 °F48.2 °F67 %29.68 in6.2 miWNW (300°)13.8 mphPartly Cloudy
2:50 PM59.0 °F48.2 °F67 %29.71 in6.2 miWNW (300°)13.8 mphPartly Cloudy
3:20 PM59.0 °F48.2 °F67 %29.71 in6.2 miNNW (330°)11.5 mphPartly Cloudy
3:50 PM60.8 °F46.4 °F59 %29.71 in6.2 miNNW (340°)10.4 mphScattered Clouds
4:20 PM59.0 °F46.4 °F63 %29.71 in6.2 miNW (310°)11.5 mphPartly Cloudy
4:50 PM59.0 °F46.4 °F63 %29.74 in6.2 miWNW (290°)10.4 mphPartly Cloudy
5:20 PM59.0 °F44.6 °F59 %29.74 in6.2 miWNW (300°)10.4 mphPartly Cloudy
5:50 PM59.0 °F44.6 °F59 %29.74 inWNW (290°)10.4 mphClear
6:20 PM57.2 °F44.6 °F63 %29.77 inWest (280°)12.7 mphClear
6:50 PM55.4 °F42.8 °F63 %29.77 inWNW (290°)11.5 mphClear
7:20 PM55.4 °F42.8 °F63 %29.80 inWNW (290°)8.1 mphClear
7:50 PM53.6 °F42.8 °F67 %29.80 inWest (280°)8.1 mphClear
8:20 PM53.6 °F42.8 °F67 %29.83 inWNW (290°)8.1 mphClear
8:50 PM51.8 °F42.8 °F71 %29.83 inWest (280°)10.4 mphClear
9:20 PM51.8 °F42.8 °F71 %29.86 inWest (280°)8.1 mphClear
9:50 PM51.8 °F42.8 °F71 %29.86 inWest (280°)9.2 mphClear
10:20 PM51.8 °F42.8 °F71 %29.86 inWest (280°)9.2 mphClear
10:50 PM51.8 °F42.8 °F71 %29.86 inWNW (290°)5.8 mphClear
11:20 PM48.2 °F42.8 °F82 %29.89 inSW (220°)3.5 mphClear
11:50 PM46.4 °F41.0 °F81 %29.89 inWest (260°)5.8 mphClear
Hourly data recorded from EGKK, located miles away from London, England







STORIES FROM OUR PARTNERS